Location: Henau
(47.4548°N, 9.1164°E)
Time: 22:17:24
(UTC+00:00)

Cosmos 1943 Rocket - Pass Details

Date: 03 March 2021
Orbit: 811 x 844 km, 71.0° (Epoch: 20 April)

Event Time Altitude Azimuth Distance (km) Brightness Sun altitude
Rises 20:43:43 0° 336° (NNW) 3,414 6.1 -35.1°
Reaches altitude 10° 20:46:23 10° 345° (NNW) 2,475 5.1 -35.5°
Enters shadow 20:48:42 22° 0° (N) 1,751 4.1 -35.8°
